Location: Central Falls
(41.8900°N, 71.3929°W)
Time: 11:47:09
(UTC+00:00)

Vanguard 2 - Pass Details

Date: 11 December 2023
Orbit: 554 x 2918 km, 32.9° (Epoch: 01 March)

Event Time Altitude Azimuth Distance (km) Brightness Sun altitude
Rises 03:06:52 0° 266° (W) 6,755 12.6 -63.1°
Reaches altitude 10° 03:11:29 10° 263° (W) 5,743 12.1 -63.8°
Enters shadow 03:17:56 27° 255° (WSW) 4,358 11.3 -64.7°
